Starlink 33735

operational
NORAD ID: 63474 Int'l Des: 2025-070 Owner: SPXS Country: US Constellation: starlink
LEOCIRCULAR

Starlink 33735について

説明を読み込み中...

リアルタイム位置

3D地球を読み込み中...

次回通過

高度履歴

Altitude vs Time

uPlot chart will show altitude changes over time

軌道要素

1 63474U 25070Q 25261.10698218 .00020377 00000-0 74744-3 0 9997
2 63474 42.9988 154.3248 0001982 252.9683 107.0952 15.27602962 26583
Epoch: Sep 18, 2025 • Age: 12 hours

現在のステータス

高度 490.0 km
速度 7.62 km/s
衛星直下点 -30.73°S, 154.88°E
打ち上げ日 Apr 6, 2025
運用期間 0.4 years
タイプ internet

技術仕様

分類 Payload
質量 575.00 kg
乾燥質量 530.00 kg
総質量 575.00 kg
長さ 0.30 m
直径 4.10 m
スパン 29.00 m
形状 Box + pan
製造者 SPXS
バスタイプ Starlink V2MO
フェーズステータス In Orbit
所有者/国 SPXS/US

大規模コンステレーション

Loading constellations...